STARLINK-4395 (53199 NORAD) Tracking and Keplerian Element Data

This shows tracking and keplerian element data for the satellite.

Feedback or suggestion? Click here.




ElementValue
Catalog53199
NameSTARLINK-4395
Epoch Orbit1072
Epoch Day270.1697134
Epoch Year2022
RAAN329.9984
Inclination97.6537
Eccentricity0.0002027
Argument of Perigee104.3362
Mean Anonmoly255.8087
Mean Motion15.01277336
Decay Rate9.038E-05
L11 53199U 22084L 22270.16971340 .00009038 00000+0 70705-3 0 9998
L22 53199 97.6537 329.9984 0002027 104.3362 255.8087 15.01277336 10720

Live tracking and technical data element details for STARLINK-4395 (NORAD 53199). STARLINK-4395 can be tracked NOW for your location showing map with azimuth and elevation plus other details from your city location.

Track the satellite on the map from your city or location and see movement details for azimuth, elevation, latitude, longitude, range, height, and movement on the map or in text.







IsCatalogInMostPopularTable: catalog: 53199, numindb: 2
Update: records affected: 1



GetName: 53199 STARLINK-4395

Hit Count: updated at: Wed, 28 Sep 2022 22:04:02 GMT